When you browse on this site, cookies collect data to enhance your experience and personalize the content and advertising you see.
Visit our Privacy Policy to learn more. By continuing to use the site, you agree to this use of cookies and data.
  • In Lithuania
  • List of Countries
  • For 7 days
  • Water Temperature
  • Weather Map
  • Weather Widgets
  • user-avatar
    Login

    Hourly Weather Ondjiwa

    Today, 23 February, Sunday

    Time Temperature Precipitation Wind Pressure Humidity
    00:00 +24°C° 1.3 mm 2 mps 665 mmHg 81%
    01:00 +24°C° 1.3 mm 1 mps 665 mmHg 81%
    02:00 +24°C° 1.1 mm 1 mps 665 mmHg 83%
    03:00 +23°C° 1.1 mm 1 mps 665 mmHg 84%
    04:00 +23°C° 1.1 mm 1 mps 665 mmHg 86%
    05:00 +23°C° 1 mm 2 mps 665 mmHg 86%
    06:00 +21°C° 1 mm 2 mps 666 mmHg 86%
    07:00 +20°C° 1 mm 3 mps 666 mmHg 86%
    08:00 +21°C° 0.9 mm 2 mps 666 mmHg 86%
    09:00 +21°C° 0.9 mm 2 mps 666 mmHg 85%
    10:00 +22°C° 0.9 mm 1 mps 666 mmHg 85%
    11:00 +23°C° 0.2 mm 2 mps 666 mmHg 81%
    12:00 +25°C° 0.2 mm 2 mps 666 mmHg 76%
    13:00 +26°C° 0.2 mm 3 mps 666 mmHg 72%
    14:00 +27°C° 0 mm 3 mps 666 mmHg 66%
    15:00 +28°C° 0 mm 3 mps 665 mmHg 60%
    16:00 +29°C° 0 mm 3 mps 665 mmHg 54%
    17:00 +27°C° 0 mm 2 mps 665 mmHg 57%
    18:00 +26°C° 0 mm 2 mps 665 mmHg 61%
    19:00 +25°C° 0 mm 1 mps 665 mmHg 64%
    20:00 +25°C° 0 mm 1 mps 665 mmHg 63%
    21:00 +24°C° 0 mm 1 mps 666 mmHg 62%
    22:00 +24°C° 0 mm 2 mps 666 mmHg 60%
    23:00 +24°C° 0 mm 2 mps 666 mmHg 58%

    Tomorrow, 24 February, Monday

    Time Temperature Precipitation Wind Pressure Humidity
    00:00 +23°C° 0 mm 2 mps 666 mmHg 56%
    01:00 +23°C° 0 mm 2 mps 666 mmHg 53%
    02:00 +21°C° 0 mm 2 mps 666 mmHg 54%
    03:00 +21°C° 0 mm 3 mps 665 mmHg 54%
    04:00 +21°C° 0 mm 3 mps 665 mmHg 55%
    05:00 +21°C° 0 mm 3 mps 665 mmHg 55%
    06:00 +20°C° 0 mm 2 mps 666 mmHg 55%
    07:00 +20°C° 0 mm 2 mps 666 mmHg 55%
    08:00 +24°C° 0 mm 2 mps 667 mmHg 46%
    09:00 +26°C° 0 mm 2 mps 667 mmHg 38%
    10:00 +29°C° 0 mm 3 mps 668 mmHg 29%
    11:00 +30°C° 0 mm 3 mps 667 mmHg 27%
    12:00 +31°C° 0 mm 3 mps 667 mmHg 25%
    13:00 +34°C° 0 mm 3 mps 667 mmHg 23%
    14:00 +34°C° 0 mm 3 mps 666 mmHg 23%
    15:00 +34°C° 0 mm 3 mps 666 mmHg 23%
    16:00 +35°C° 0 mm 3 mps 665 mmHg 23%
    17:00 +31°C° 0 mm 2 mps 665 mmHg 27%
    18:00 +29°C° 0 mm 1 mps 665 mmHg 30%
    19:00 +25°C° 0 mm 0 mps 664 mmHg 34%
    20:00 +26°C° 0 mm 1 mps 665 mmHg 37%
    21:00 +25°C° 0 mm 2 mps 665 mmHg 40%
    22:00 +25°C° 0 mm 3 mps 666 mmHg 42%
    23:00 +24°C° 0 mm 3 mps 666 mmHg 45%

    Day after tomorrow, 25 February, Tuesday

    Time Temperature Precipitation Wind Pressure Humidity
    00:00 +22°C° 0 mm 3 mps 666 mmHg 49%
    01:00 +21°C° 0 mm 3 mps 665 mmHg 52%
    02:00 +21°C° 0 mm 3 mps 665 mmHg 53%
    03:00 +20°C° 0 mm 3 mps 665 mmHg 54%
    04:00 +20°C° 0 mm 3 mps 665 mmHg 55%
    05:00 +20°C° 0 mm 2 mps 665 mmHg 56%
    06:00 +20°C° 0 mm 2 mps 665 mmHg 57%
    07:00 +21°C° 0 mm 2 mps 666 mmHg 57%
    08:00 +24°C° 0 mm 2 mps 666 mmHg 52%
    09:00 +27°C° 0 mm 2 mps 666 mmHg 47%
    10:00 +29°C° 0 mm 2 mps 667 mmHg 42%
    11:00 +30°C° 0 mm 2 mps 666 mmHg 38%
    12:00 +32°C° 0 mm 2 mps 666 mmHg 34%
    13:00 +34°C° 0 mm 2 mps 666 mmHg 30%
    14:00 +34°C° 0 mm 2 mps 665 mmHg 28%
    15:00 +35°C° 0 mm 2 mps 664 mmHg 26%
    16:00 +35°C° 0 mm 3 mps 664 mmHg 24%
    17:00 +32°C° 0 mm 2 mps 664 mmHg 27%
    18:00 +29°C° 0 mm 2 mps 664 mmHg 30%
    19:00 +27°C° 0 mm 2 mps 663 mmHg 33%
    20:00 +26°C° 0 mm 2 mps 664 mmHg 34%
    21:00 +26°C° 0 mm 2 mps 665 mmHg 36%
    22:00 +25°C° 0 mm 2 mps 665 mmHg 37%
    23:00 +24°C° 0 mm 2 mps 665 mmHg 41%

    26 February, Wednesday

    Time Temperature Precipitation Wind Pressure Humidity
    00:00 +23°C° 0 mm 2 mps 665 mmHg 46%
    01:00 +21°C° 0 mm 2 mps 665 mmHg 50%
    02:00 +21°C° 0 mm 2 mps 665 mmHg 51%
    03:00 +20°C° 0 mm 2 mps 664 mmHg 51%
    04:00 +20°C° 0 mm 2 mps 664 mmHg 52%
    05:00 +20°C° 0 mm 2 mps 665 mmHg 52%
    06:00 +21°C° 0 mm 1 mps 665 mmHg 52%
    07:00 +22°C° 0 mm 1 mps 666 mmHg 53%
    08:00 +24°C° 0 mm 1 mps 666 mmHg 49%
    09:00 +26°C° 0 mm 1 mps 667 mmHg 46%
    10:00 +29°C° 0 mm 2 mps 667 mmHg 42%
    11:00 +30°C° 0 mm 2 mps 667 mmHg 37%
    12:00 +32°C° 0 mm 2 mps 666 mmHg 32%
    13:00 +34°C° 0 mm 3 mps 666 mmHg 27%
    14:00 +35°C° 0 mm 3 mps 666 mmHg 25%
    15:00 +35°C° 0 mm 3 mps 665 mmHg 24%
    16:00 +35°C° 0 mm 3 mps 664 mmHg 22%
    17:00 +32°C° 0 mm 2 mps 664 mmHg 25%
    18:00 +30°C° 0 mm 2 mps 664 mmHg 27%
    19:00 +27°C° 0 mm 1 mps 664 mmHg 30%
    20:00 +26°C° 0 mm 2 mps 665 mmHg 32%
    21:00 +25°C° 0 mm 2 mps 665 mmHg 35%
    22:00 +24°C° 0 mm 3 mps 665 mmHg 37%
    23:00 +24°C° 0 mm 2 mps 665 mmHg 39%

    27 February, Thursday

    Time Temperature Precipitation Wind Pressure Humidity
    00:00 +23°C° 0 mm 2 mps 665 mmHg 41%
    01:00 +22°C° 0 mm 1 mps 665 mmHg 43%
    02:00 +21°C° 0 mm 1 mps 665 mmHg 46%
    03:00 +20°C° 0 mm 2 mps 665 mmHg 49%
    04:00 +19°C° 0 mm 2 mps 665 mmHg 53%
    05:00 +19°C° 0 mm 2 mps 665 mmHg 56%
    06:00 +20°C° 0 mm 2 mps 666 mmHg 59%
    07:00 +20°C° 0 mm 2 mps 666 mmHg 62%
    08:00 +24°C° 0 mm 1 mps 667 mmHg 54%
    09:00 +27°C° 0 mm 1 mps 668 mmHg 47%
    10:00 +30°C° 0 mm 1 mps 668 mmHg 39%
    11:00 +32°C° 0 mm 1 mps 668 mmHg 35%
    12:00 +34°C° 0 mm 1 mps 668 mmHg 31%
    13:00 +36°C° 0 mm 1 mps 668 mmHg 26%
    14:00 +35°C° 0 mm 1 mps 667 mmHg 25%
    15:00 +35°C° 0 mm 1 mps 666 mmHg 23%
    16:00 +36°C° 0 mm 2 mps 666 mmHg 21%
    17:00 +34°C° 0 mm 2 mps 665 mmHg 24%
    18:00 +30°C° 0 mm 2 mps 665 mmHg 27%
    19:00 +28°C° 0 mm 2 mps 665 mmHg 30%
    20:00 +27°C° 0 mm 1 mps 665 mmHg 32%
    21:00 +27°C° 0 mm 1 mps 666 mmHg 34%
    22:00 +26°C° 0 mm 1 mps 666 mmHg 36%
    23:00 +25°C° 0 mm 1 mps 666 mmHg 37%

    28 February, Friday

    Time Temperature Precipitation Wind Pressure Humidity
    00:00 +24°C° 0 mm 1 mps 666 mmHg 39%
    01:00 +23°C° 0 mm 1 mps 666 mmHg 40%
    02:00 +23°C° 0 mm 1 mps 666 mmHg 45%
    03:00 +22°C° 0 mm 1 mps 666 mmHg 50%
    04:00 +21°C° 0 mm 1 mps 665 mmHg 54%
    05:00 +22°C° 0 mm 1 mps 666 mmHg 56%
    06:00 +22°C° 0 mm 1 mps 666 mmHg 58%
    07:00 +22°C° 0 mm 1 mps 667 mmHg 60%
    08:00 +24°C° 0 mm 1 mps 667 mmHg 57%
    09:00 +26°C° 0 mm 2 mps 668 mmHg 53%
    10:00 +28°C° 0 mm 2 mps 669 mmHg 49%
    11:00 +28°C° 0 mm 3 mps 668 mmHg 51%
    12:00 +28°C° 0 mm 3 mps 667 mmHg 52%
    13:00 +28°C° 0 mm 4 mps 667 mmHg 54%
    14:00 +27°C° 0 mm 4 mps 666 mmHg 55%
    15:00 +26°C° 0 mm 4 mps 665 mmHg 56%
    16:00 +25°C° 0 mm 4 mps 665 mmHg 57%
    17:00 +25°C° 0.1 mm 3 mps 665 mmHg 56%
    18:00 +25°C° 0.1 mm 2 mps 665 mmHg 55%
    19:00 +25°C° 0.1 mm 2 mps 666 mmHg 54%
    20:00 +25°C° 0 mm 3 mps 666 mmHg 58%
    21:00 +23°C° 0 mm 4 mps 667 mmHg 63%
    22:00 +23°C° 0 mm 5 mps 667 mmHg 67%
    23:00 +22°C° 0.1 mm 4 mps 667 mmHg 69%
    Show more